Simultaneous Nadir Overpasses (SNOs) Predictions

Prediction of SNOs between METOP-A and NOAA-19 Satellite Orbit:

Table of predicted SNOs for the next 14.0 days since TLE Epoch: 6/17/2016
Index Date (METOP-A) Time (METOP-A) Lat,Lon (METOP-A) SZA (METOP-A ) Date (NOAA-19) Time (NOAA-19) Lat,Lon (NOAA-19) SZA (NOAA-19 ) Distance(km) Time Diff (sec)
1 06/20/2016 12:58:27 -76.18, 165.87 127.34 06/20/2016 12:57:12 -76.16, 165.90 127.35 1.95 75
2 06/20/2016 13:49:08 76.14, -26.93 52.63 06/20/2016 13:48:18 76.17, -26.90 52.66 3.03 50
3 06/20/2016 14:39:49 -76.16, 140.46 127.36 06/20/2016 14:39:14 -76.16, 140.40 127.36 1.77 35
4 06/20/2016 15:30:30 76.12, -52.34 52.61 06/20/2016 15:30:19 76.12, -52.23 52.61 2.81 11
5 06/20/2016 16:21:11 -76.14, 115.06 127.38 06/20/2016 16:21:15 -76.11, 115.06 127.40 2.84 4
6 06/20/2016 17:11:52 76.10, -77.74 52.59 06/20/2016 17:12:21 76.12, -77.73 52.61 1.87 29
7 06/20/2016 18:02:33 -76.12, 89.65 127.40 06/20/2016 18:03:17 -76.11, 89.56 127.40 2.55 44
8 06/20/2016 18:53:14 76.08,-103.15 52.57 06/20/2016 18:54:22 76.07,-103.07 52.56 2.57 68
9 06/20/2016 19:44:03 -75.73, 63.01 127.78 06/20/2016 19:45:11 -75.75, 65.33 127.76 63.43 68
10 07/01/2016 04:03:30 -76.61, -58.88 126.54 07/01/2016 04:02:23 -76.62, -61.90 126.52 77.84 67
11 07/01/2016 04:54:19 76.19, 106.93 53.04 07/01/2016 04:53:20 76.19, 106.99 53.04 1.57 59
12 07/01/2016 05:45:01 -76.18, -85.77 126.97 07/01/2016 05:44:15 -76.18, -85.71 126.97 1.45 46
13 07/01/2016 06:35:41 76.17, 81.52 53.02 07/01/2016 06:35:22 76.19, 81.49 53.05 2.45 19
14 07/01/2016 07:26:23 -76.16,-111.17 126.98 07/01/2016 07:26:17 -76.18,-111.21 126.96 2.49 6
15 07/01/2016 08:17:03 76.15, 56.12 53.01 07/01/2016 08:17:23 76.14, 56.15 53.00 1.18 20
16 07/01/2016 09:07:45 -76.14,-136.58 127.00 07/01/2016 09:08:18 -76.14,-136.55 127.00 1.03 33




NCC Satellite Simultaneous Nadir Overpasses (SNOs) Prediction Service
